Theta_e
299 298 298 299 300 300 301 301 305 305 311 321 326 327 331 332 334 335 335 336 335 334 332 334 331 326 328 332 335 334 333 333
299 298 298 298 298 299 300 304 302 300 302 313 323 326 327 330 333 333 334 334 335 333 335 332 332 325 328 333 334 334 335 333
299 298 298 297 297 297 298 300 301 299 300 303 313 323 327 327 329 332 334 334 334 334 335 335 335 325 328 333 333 334 334 333
299 298 298 297 296 296 296 297 301 300 300 299 302 314 323 327 328 330 332 334 334 334 335 334 332 329 325 333 332 333 333 332
299 298 297 297 296 296 295 295 299 298 302 301 300 302 317 324 327 329 332 333 333 335 334 333 330 327 328 331 330 333 333 333
299 298 297 297 296 296 296 295 295 297 300 302 301 300 304 318 323 327 331 332 333 333 333 333 330 327 322 330 330 332 333 332
299 298 297 297 297 297 296 295 294 295 299 301 301 300 300 309 320 324 327 331 332 332 331 331 330 329 323 330 330 330 332 332
299 298 297 297 297 296 296 294 295 294 298 301 300 301 300 300 311 319 323 328 331 332 332 331 331 331 328 328 329 329 333 331
299 298 297 297 297 296 295 294 295 294 296 297 299 301 301 298 303 314 317 324 328 331 332 332 332 330 330 329 327 330 333 331
299 298 298 297 297 296 294 294 295 295 295 297 300 300 300 299 298 307 313 319 324 328 331 331 330 330 330 330 328 329 332 331
299 298 298 297 296 295 294 294 294 295 295 296 299 299 299 300 297 301 310 316 321 326 328 329 330 330 332 331 330 330 331 332
299 298 297 297 296 295 295 294 294 295 295 296 298 298 300 299 299 298 307 313 317 322 327 328 330 330 331 330 329 330 332 332
298 298 297 297 297 296 295 294 294 295 295 296 297 299 299 300 299 298 305 311 314 318 324 326 326 327 329 330 329 329 330 329
297 297 297 297 296 295 294 294 294 295 295 295 296 298 300 300 300 299 302 309 312 314 320 324 327 327 328 328 328 326 327 327
297 296 296 296 296 295 295 293 294 294 294 295 296 298 300 300 300 299 299 308 312 313 316 321 325 327 327 326 326 325 324 326
296 296 296 295 294 294 294 294 294 294 294 295 296 297 298 299 298 298 299 305 309 311 314 315 320 326 327 325 324 324 323 323
296 295 295 294 294 294 294 293 294 294 294 294 296 295 295 297 297 298 299 302 307 311 314 314 317 321 325 326 325 324 324 324
296 295 295 294 294 294 294 294 294 294 294 295 294 294 295 296 296 298 298 300 306 309 312 313 315 318 322 325 324 324 324 325
296 296 295 294 294 294 294 293 293 294 294 294 294 294 295 296 297 297 298 300 305 308 311 313 314 317 320 322 323 324 324 324
296 296 294 294 294 294 294 294 294 294 294 294 295 295 295 296 296 296 297 300 304 308 311 314 316 315 317 323 324 325 325 323
Wind_Speed
22 26 21 16 19 19 21 23 21 20 21 16 13 9 10 8 9 3 14 12 10 15 14 8 15 14 16 18 17 13 7 9
20 24 26 19 17 19 18 20 24 19 18 17 14 11 11 10 10 12 11 14 13 21 12 8 17 18 19 20 19 15 8 8
17 22 27 26 20 20 20 19 25 24 20 17 15 12 11 10 9 13 16 15 15 21 18 13 18 22 19 22 19 15 14 11
15 17 22 27 29 27 22 21 25 27 25 21 18 14 11 10 10 8 14 15 15 15 16 13 19 20 26 22 19 8 9 20
16 15 19 28 30 33 33 26 23 25 26 27 21 19 13 10 10 11 9 13 10 13 14 20 21 20 24 22 18 10 16 16
17 15 19 23 26 31 34 34 26 26 22 27 28 22 15 13 7 11 9 13 12 12 15 18 18 19 26 23 20 13 15 12
18 16 18 20 28 30 30 30 30 23 17 24 30 25 19 15 7 11 11 13 17 18 17 19 17 18 25 26 24 18 15 16
18 16 16 19 22 22 25 23 23 24 17 22 27 28 23 16 14 8 10 12 20 21 22 19 20 21 24 27 28 23 19 18
17 15 15 15 15 14 16 14 15 20 19 24 23 27 26 20 15 10 7 12 15 23 25 25 23 22 20 27 34 29 15 23
16 14 16 13 10 11 11 11 12 14 15 19 20 26 28 22 15 12 9 6 14 19 26 27 24 23 24 26 34 37 19 23
17 16 14 9 3 7 10 13 13 13 11 16 19 25 25 22 18 13 11 6 10 18 22 23 25 21 24 26 27 32 25 22
18 15 12 9 4 3 9 14 13 12 9 11 15 23 20 24 20 14 9 6 5 15 21 20 25 26 20 25 23 31 22 11
11 14 6 6 10 11 8 14 13 10 10 13 12 14 18 21 18 14 7 6 6 4 21 24 16 16 31 25 24 27 24 18
14 9 9 13 14 7 11 13 9 10 12 15 13 14 13 16 17 16 9 4 4 3 10 13 20 17 23 25 20 20 29 22
11 8 10 13 16 2 4 12 10 11 8 13 14 11 8 11 15 15 10 3 3 6 4 12 16 27 21 17 15 12 27 30
11 14 16 15 9 6 5 8 12 11 13 13 14 17 12 10 15 14 10 3 1 5 4 4 11 25 28 26 23 11 15 13
15 13 14 13 5 5 8 9 10 11 13 14 10 15 13 12 15 13 9 5 2 2 5 8 7 15 19 33 22 16 17 19
10 11 13 12 10 7 9 9 9 9 14 12 13 15 13 7 10 12 11 7 3 2 0 3 7 4 16 24 33 25 23 24
8 10 11 9 7 11 11 12 10 9 12 13 14 11 7 6 7 10 13 6 2 2 3 1 6 6 8 17 21 40 32 27
9 10 8 8 9 10 9 8 8 7 9 12 10 9 6 7 7 10 11 8 1 1 3 4 2 8 6 15 14 31 38 36
Wind_Direction
356 356 8 10 11 10 0 352 338 339 327 328 329 310 293 268 271 230 204 214 219 199 183 215 219 180 180 169 166 168 181 175
357 353 353 10 6 6 8 11 347 335 341 324 320 310 290 285 247 242 224 204 210 193 200 214 190 191 179 180 176 185 186 207
340 342 348 1 2 4 359 6 351 339 338 337 318 311 289 275 264 234 222 217 214 206 214 239 216 184 182 191 195 195 219 206
340 338 341 352 356 354 1 1 357 348 335 333 337 318 313 283 264 250 235 226 241 240 211 204 181 188 179 196 194 195 205 194
327 337 341 343 346 346 353 348 354 346 343 332 331 329 304 298 264 244 225 220 216 202 206 191 192 190 181 193 186 156 191 183
309 321 336 342 342 342 347 350 343 337 346 332 325 329 319 301 278 235 219 201 187 188 189 200 202 193 183 196 197 187 181 187
290 306 327 330 327 330 342 348 347 325 339 332 324 322 326 310 301 250 225 211 194 190 197 200 212 209 197 202 203 206 198 198
276 295 310 312 313 324 335 353 346 333 336 329 322 322 325 319 303 277 235 222 207 201 196 199 205 204 211 208 204 206 192 193
257 285 291 288 304 327 354 355 348 333 327 332 319 317 320 322 308 291 287 224 217 209 198 201 205 208 209 210 210 207 204 190
262 273 275 276 293 334 353 337 315 322 300 323 317 313 317 322 314 293 296 257 218 214 210 203 203 208 214 207 214 215 211 193
277 280 268 256 29 16 335 318 304 292 299 289 319 315 322 328 325 309 289 303 233 214 220 214 205 207 228 221 220 211 219 196
310 271 247 233 265 331 332 307 296 295 309 289 319 311 318 326 334 326 290 296 280 220 216 215 220 221 241 211 224 205 197 177
330 265 252 308 304 282 311 299 310 287 318 323 312 308 318 324 334 336 301 287 324 236 214 218 217 234 229 196 196 203 209 199
330 285 280 311 326 355 311 309 314 320 292 330 309 315 311 312 323 337 331 296 342 346 204 194 205 202 186 181 187 204 216 209
324 318 326 320 322 11 284 306 310 311 357 325 339 329 9 324 324 335 338 308 3 20 236 182 191 202 192 181 176 207 211 213
339 333 343 345 340 333 306 331 340 345 324 323 316 325 2 353 333 337 335 320 160 45 63 167 184 201 210 190 195 193 180 190
345 346 345 353 4 343 310 331 328 335 320 319 308 323 311 315 328 335 327 316 262 27 67 58 184 184 200 197 195 195 198 191
339 358 1 349 323 311 333 312 318 329 334 330 332 328 333 335 325 334 331 307 254 223 251 45 47 172 199 210 205 201 203 192
321 326 344 346 327 333 325 338 351 345 330 327 324 337 339 341 329 339 337 318 250 229 223 10 358 5 209 207 212 213 211 206
325 337 349 345 340 346 344 328 319 317 328 309 353 349 347 348 343 334 329 317 243 184 152 135 117 26 12 214 217 221 223 220